[[{"header":{"parameterUnit":"m.s-1","parameterCategory":1,"la1":30.2991,"la2":30.254,"lo1":-89.0895,"lo2":-89.0444,"dy":0.0017,"dx":0.0017,"nx":28,"ny":28,"refTime":"2025-04-26T03:00:00:Z","depth":0,"parameterNumber":2,"parameterNumberName":"U-component_of_WINDS"},"data":[0,0,0,0,0,0,0,0,0,0,0,0,0,0,0,0,0,0,0,0,0,0,0,0,0,0,0,0,0,0,0,0,0,0,0,0,0,0,0,0,0,0,0,0,0,0,0,0,0,0,0,0,0,0,0,0,0,0,0.362,0.3621,0,0.3723,0.3724,0.3725,0.3746,0.3746,0.3745,0.3744,0.3851,0.3855,0.3858,0,0,0,0,0,0,0,0,0,0,0,0,0,0.3443,0.3447,0.362,0.3621,0.3622,0.3722,0.3724,0.3725,0.3747,0.3746,0.3745,0.3744,0.385,0.3854,0.3859,0,0,0,0,0,0,0,0,0,0,0,0,0,0.3531,0.3448,0.362,0.3645,0.3648,0.3722,0.3724,0.3726,0.3747,0.3746,0.3744,0.3743,0.3849,0.3854,0.3859,0.3916,0,0,0.3876,0.3878,0,0,0,0,0,0,0,0,0.3526,0.3537,0.364,0.3643,0.3647,0.372,0.3701,0.379,0.3747,0.3709,0.3744,0.3743,0.3809,0.3818,0.3839,0.3921,0.3925,0.3876,0.388,0.3882,0.3883,0,0,0,0,0,0,0,0.3519,0.3533,0.3661,0.3641,0.3646,0.3652,0.3663,0.3718,0.3765,0.3713,0.3714,0.3726,0.3811,0.3834,0.3842,0.3927,0.3876,0.3881,0.3884,0.3886,0.406,0.4061,0,0,0,0,0,0,0.3509,0.3528,0.3657,0.3664,0.3582,0.3656,0.3668,0.3698,0.3764,0.3773,0.3727,0.3727,0.3826,0.3836,0.3846,0.3917,0.3882,0.3887,0.389,0.4059,0.406,0.4062,0,0,0,0,0,0,0.3505,0.352,0.3653,0.3596,0.3613,0.366,0.3694,0.3701,0.3724,0.3775,0.3783,0.3742,0.3825,0.3838,0.3898,0.3921,0.3889,0.3894,0.4057,0.4059,0.4061,0.4058,0,0,0,0,0,0,0.35,0.3519,0.354,0.3596,0.3616,0.3703,0.3695,0.3704,0.3733,0.3734,0.3792,0.38,0.3825,0.389,0.3903,0.3927,0.3898,0.4055,0.4058,0.4061,0.4056,0.406,0.4062,0,0,0,0,0,0.3493,0.3536,0.3541,0.3557,0.3644,0.3704,0.3716,0.3743,0.3735,0.3757,0.379,0.3798,0.3916,0.3896,0.3911,0.3937,0.4054,0.4057,0.406,0.4055,0.4059,0.4062,0,0,0,0,0,0,0.3481,0.3543,0.355,0.3612,0.3653,0.3708,0.3737,0.3747,0.3791,0.379,0.3823,0.3836,0.3894,0.3922,0.3898,0.3995,0.3985,0.3991,0.3975,0.3979,0.3982,0.3975,0.3903,0,0,0,0,0,0.3486,0.3529,0.3581,0.363,0.365,0.369,0.3717,0.3735,0.3779,0.3796,0.3833,0.3876,0.3922,0.3952,0.3998,0.406,0.4073,0.4085,0.4089,0.4091,0.4096,0.4131,0.4137,0.4072,0.4072,0.4072,0,0,0.3496,0.3535,0.356,0.3629,0.3662,0.3707,0.3704,0.3751,0.3785,0.3804,0.3862,0.3891,0.394,0.4001,0.403,0.4026,0.4117,0.4095,0.4096,0.4101,0.4135,0.4141,0.4147,0.4074,0.4074,0.4074,0,0,0.3536,0.357,0.3615,0.3648,0.3699,0.3725,0.3736,0.379,0.3809,0.3868,0.3883,0.3923,0.4003,0.4038,0.4066,0.4119,0.4129,0.4133,0.415,0.4184,0.4189,0.4193,0.4213,0.4219,0.4138,0.4138,0.4138,0,0.3542,0.3609,0.3637,0.3683,0.3713,0.3731,0.3777,0.3808,0.3872,0.3892,0.3887,0.3987,0.4021,0.4091,0.4104,0.4126,0.414,0.4127,0.4186,0.4191,0.4195,0.4214,0.4221,0.4139,0.4139,0.4138,0.4138,0,0.3614,0.366,0.369,0.375,0.3783,0.3829,0.3864,0.3895,0.3909,0.3936,0.3996,0.4039,0.4093,0.4111,0.4126,0.4183,0.4179,0.4179,0.4169,0.4201,0.4219,0.4227,0.4139,0.4139,0.4139,0.4139,0,0,0.365,0.3724,0.3735,0.3762,0.382,0.3856,0.3903,0.3955,0.3981,0.4024,0.4064,0.4131,0.4131,0.4163,0.4183,0.4212,0.4252,0.4209,0.4211,0.4215,0.4317,0.4316,0.4324,0.4258,0.426,0.4261,0.4313,0,0.3697,0.3781,0.3807,0.3877,0.392,0.3938,0.3979,0.4019,0.4045,0.4086,0.4115,0.4162,0.4159,0.4178,0.4208,0.424,0.4272,0.4237,0.4296,0.4298,0.4283,0.4334,0.4333,0.438,0.432,0.4321,0.4322,0,0.3764,0.3808,0.3882,0.3933,0.3952,0.3989,0.4039,0.4077,0.4123,0.414,0.4175,0.4192,0.4242,0.4228,0.4298,0.4273,0.4299,0.4319,0.4321,0.4328,0.4312,0.4342,0.4396,0.4403,0.4333,0.4333,0.4332,0,0.3783,0.386,0.3915,0.3938,0.3999,0.4024,0.4051,0.4095,0.4125,0.4169,0.4189,0.4239,0.4266,0.4304,0.4334,0.4321,0.4401,0.439,0.4416,0.4416,0.4433,0.4431,0.4492,0.4449,0.4449,0.4449,0.4448,0,0.3834,0.3878,0.3924,0.3957,0.4008,0.4038,0.4087,0.4115,0.4154,0.4194,0.4212,0.4249,0.4286,0.4328,0.4351,0.4405,0.4418,0.4433,0.4439,0.4431,0.4429,0.4449,0.4446,0.4451,0.445,0.445,0.4449,0,0.3864,0.3896,0.3956,0.4009,0.4024,0.4059,0.4104,0.4138,0.4164,0.4214,0.4228,0.427,0.432,0.4353,0.4417,0.4433,0.4492,0.4497,0.4476,0.4479,0.4504,0.4501,0.4579,0.4591,0.454,0.454,0.4541,0,0.3894,0.3928,0.3985,0.4013,0.4039,0.4083,0.4114,0.4145,0.4176,0.423,0.4257,0.4308,0.435,0.4429,0.4466,0.4515,0.4522,0.4546,0.4529,0.4521,0.4522,0.452,0.4523,0.4548,0.4549,0.4549,0.4549,0,0.3944,0.3958,0.4001,0.4049,0.4085,0.4125,0.4165,0.4187,0.4224,0.4258,0.4309,0.4342,0.4407,0.4458,0.451,0.4539,0.455,0.4554,0.4563,0.4556,0.4542,0.455,0.4483,0.4552,0.4552,0.4552,0.4552,0.4552,0.3975,0.4006,0.4051,0.4098,0.4132,0.4168,0.4202,0.4233,0.4276,0.4331,0.4346,0.44,0.4444,0.4516,0.4545,0.4587,0.4585,0.4598,0.4601,0.4603,0.4603,0.4535,0.4597,0.4597,0.4597,0.4597,0.4597,0,0.4026,0.4055,0.4098,0.4153,0.4191,0.4198,0.4243,0.4273,0.432,0.436,0.4401,0.446,0.4509,0.4549,0.46,0.4626,0.4633,0.4638,0.4637,0.4643,0.4603,0.459,0.4632,0.4632,0.4632,0.4632,0.4632,0.4632,0.4057,0.411,0.413,0.42,0.423,0.4282,0.4306,0.4341,0.4373,0.4437,0.4478,0.4504,0.4544,0.4598,0.4643,0.4654,0.4672,0.4676,0.4688,0.465,0.4646,0.4642,0.463,0.468,0.468,0.4725,0.4725,0.4725]},{"header":{"parameterUnit":"m.s-1","parameterCategory":1,"la1":30.2991,"la2":30.254,"lo1":-89.0895,"lo2":-89.0444,"dy":0.0017,"dx":0.0017,"nx":28,"ny":28,"refTime":"2025-04-26T03:00:00:Z","depth":0,"parameterNumber":3,"parameterNumberName":"V-component_of_WINDS"},"data":[0,0,0,0,0,0,0,0,0,0,0,0,0,0,0,0,0,0,0,0,0,0,0,0,0,0,0,0,0,0,0,0,0,0,0,0,0,0,0,0,0,0,0,0,0,0,0,0,0,0,0,0,0,0,0,0,0,0,2.0239,2.024,0,2.0263,2.0263,2.0264,2.0321,2.0322,2.0323,2.0324,2.0345,2.0344,2.0344,0,0,0,0,0,0,0,0,0,0,0,0,0,2.0239,2.0239,2.0239,2.024,2.024,2.0263,2.0263,2.0264,2.0321,2.0322,2.0324,2.0325,2.0345,2.0345,2.0344,0,0,0,0,0,0,0,0,0,0,0,0,0,2.0249,2.0239,2.0239,2.0271,2.0274,2.0263,2.0263,2.0264,2.032,2.0322,2.0324,2.0326,2.0345,2.0345,2.0344,2.0302,0,0,2.0341,2.0341,0,0,0,0,0,0,0,0,2.0248,2.0249,2.0266,2.0269,2.0273,2.0291,2.0271,2.0277,2.032,2.0303,2.0324,2.0326,2.0325,2.0326,2.0327,2.0303,2.0304,2.0341,2.0341,2.034,2.034,0,0,0,0,0,0,0,2.0247,2.0248,2.0249,2.0266,2.027,2.0283,2.0286,2.0272,2.0303,2.0304,2.0309,2.0311,2.0327,2.0327,2.0328,2.0305,2.0341,2.034,2.034,2.034,2.0246,2.0244,0,0,0,0,0,0,2.0243,2.0247,2.0248,2.0249,2.0265,2.0282,2.0285,2.0283,2.0304,2.0309,2.0309,2.0313,2.0328,2.0328,2.0328,2.028,2.034,2.0339,2.0339,2.0248,2.0246,2.0244,0,0,0,0,0,0,2.0242,2.0242,2.0247,2.0249,2.0251,2.028,2.0277,2.0283,2.0283,2.0308,2.0313,2.0304,2.0329,2.033,2.0308,2.0281,2.0339,2.0338,2.025,2.0247,2.0245,2.0183,0,0,0,0,0,0,2.0242,2.0242,2.0227,2.0249,2.0251,2.0227,2.0275,2.0282,2.0281,2.0287,2.0304,2.0308,2.0331,2.0309,2.0307,2.0281,2.0338,2.0253,2.0249,2.0246,2.0187,2.0178,2.017,0,0,0,0,0,2.0242,2.0209,2.0226,2.0226,2.0233,2.0226,2.0227,2.0254,2.0279,2.0264,2.028,2.0308,2.0285,2.0306,2.0305,2.0278,2.0255,2.025,2.0246,2.0191,2.018,2.017,0,0,0,0,0,0,2.0182,2.0212,2.0232,2.0205,2.0212,2.0236,2.0217,2.0242,2.0242,2.0247,2.028,2.0283,2.0257,2.0266,2.0289,2.0238,2.0274,2.0269,2.0233,2.0223,2.0214,2.0212,2.0337,0,0,0,0,0,2.0166,2.0159,2.0185,2.0158,2.0161,2.0188,2.0186,2.0207,2.0216,2.0219,2.0233,2.0239,2.0233,2.0229,2.0225,2.0189,2.0192,2.017,2.0161,2.0154,2.0149,2.0129,2.0118,2.0229,2.0229,2.0229,0,0,2.0133,2.0148,2.0141,2.0147,2.0155,2.0145,2.0191,2.0179,2.0171,2.0217,2.0197,2.0207,2.0217,2.0187,2.0175,2.0194,2.0119,2.0148,2.0143,2.0141,2.0123,2.0112,2.0103,2.0226,2.0227,2.0227,0,0,2.0066,2.0077,2.0056,2.0063,2.0076,2.0094,2.0088,2.0108,2.0116,2.0098,2.0131,2.0122,2.0112,2.0116,2.0117,2.0051,2.0076,2.0049,2.0003,1.9983,1.9974,1.9967,1.9941,1.9932,2.0044,2.0043,2.0043,0,2.0022,2.0009,2.0041,2.0027,2.0027,2.0069,2.0046,2.0052,2.0061,2.006,2.0081,2.0068,2.0077,2.0049,2.0032,2.0033,2.0026,2.0046,1.9973,1.9966,1.9959,1.9935,1.9925,2.004,2.004,2.0041,2.0041,0,1.9954,1.9944,1.9925,1.9934,1.9933,1.9914,1.9942,1.9936,1.9957,1.9972,1.9951,1.9964,1.9962,1.9957,1.9977,1.9931,1.9942,1.9968,2.0004,1.9944,1.9922,1.9913,2.0035,2.0036,2.0037,2.0038,0,0,1.985,1.9876,1.9869,1.9873,1.9889,1.9881,1.9864,1.9863,1.9857,1.9862,1.9847,1.9837,1.986,1.9861,1.9882,1.9864,1.9808,1.9892,1.9893,1.9875,1.9756,1.9735,1.9724,1.9826,1.9824,1.9823,1.9754,0,1.9785,1.9758,1.9786,1.9752,1.9742,1.9782,1.9766,1.9773,1.9787,1.978,1.9795,1.9786,1.9819,1.982,1.9804,1.9819,1.9785,1.9824,1.981,1.9809,1.9805,1.9713,1.9691,1.9626,1.9746,1.9745,1.9744,0,1.9707,1.9709,1.9674,1.9691,1.9688,1.9674,1.9675,1.9668,1.9677,1.9688,1.9688,1.9713,1.9695,1.9732,1.9707,1.9733,1.9729,1.9735,1.9733,1.9731,1.9771,1.9707,1.9606,1.9596,1.9731,1.9732,1.9733,0,1.9632,1.9626,1.9604,1.9606,1.9627,1.9615,1.9623,1.9633,1.963,1.9631,1.9629,1.9627,1.9625,1.9622,1.9645,1.967,1.9616,1.9655,1.9623,1.9622,1.9609,1.9609,1.9504,1.9608,1.9608,1.9609,1.9609,0,1.9556,1.9533,1.9571,1.9557,1.9531,1.9563,1.9536,1.9548,1.9556,1.9544,1.9578,1.9566,1.9598,1.9588,1.9606,1.9581,1.958,1.9587,1.9592,1.9583,1.9582,1.958,1.9584,1.9606,1.9607,1.9607,1.9608,0,1.9468,1.9492,1.9471,1.9492,1.9496,1.9476,1.9493,1.948,1.9497,1.9481,1.9479,1.9503,1.9493,1.9516,1.951,1.9522,1.9486,1.9498,1.9483,1.9486,1.9452,1.9454,1.934,1.9326,1.9441,1.944,1.9439,0,1.9417,1.94,1.9419,1.9414,1.942,1.9411,1.9409,1.9439,1.9435,1.9442,1.9428,1.9421,1.9417,1.94,1.9416,1.941,1.9422,1.9383,1.9422,1.9413,1.9419,1.9419,1.9417,1.9374,1.9373,1.9372,1.9371,0,1.9324,1.9337,1.9333,1.9332,1.9329,1.933,1.9333,1.9326,1.9358,1.9351,1.9342,1.9339,1.9333,1.9325,1.9323,1.9329,1.9354,1.9359,1.9351,1.9341,1.9332,1.9334,1.9459,1.9361,1.9362,1.9363,1.9363,1.9363,1.9252,1.9238,1.9249,1.9243,1.9248,1.925,1.9239,1.9254,1.9247,1.9245,1.9263,1.9249,1.9256,1.9257,1.926,1.9249,1.9266,1.9255,1.9252,1.9248,1.9242,1.9335,1.9248,1.9249,1.9249,1.9249,1.925,0,1.9159,1.9168,1.9162,1.9166,1.916,1.9186,1.919,1.9184,1.9172,1.9177,1.9173,1.9161,1.9153,1.9169,1.9163,1.9151,1.9162,1.9148,1.9148,1.9149,1.9227,1.9234,1.9139,1.9139,1.9139,1.9139,1.9139,1.9139,1.911,1.9088,1.9101,1.9081,1.909,1.9078,1.9078,1.9079,1.9084,1.907,1.9064,1.9074,1.9083,1.9078,1.9071,1.9076,1.9071,1.9053,1.9061,1.9133,1.9144,1.9154,1.9161,1.9052,1.9052,1.8984,1.8983,1.8983]}]]